Current weather by "City, St" or "zip code"  
 
Advertise Here

Current Conditions: Tri-Cities Airport, WA

Fair


43.0 F

Last Updated on Jan 27 2021, 10:53 am PST
Humidity: 74%
Wind Speed: N 0.0 mph
Barometer 29.65 in
Dewpoint: 35.1 F
Visibility: 10.00 mi
Precip: --
Heat Index: NA
Wind Chill: NA
Current conditions at:

Tri-Cities Airport, WA (KPSC)

Lat: 46.26955 Lon: 119.11813

Local Radar Image active severe weather and emergency alerts image image weather storm and storm spotter reports image weather observation monitoring service image
Local
Radar
Active
Alerts
Storm Reports Obs
Monitoring

Sign-up For Email & Text Message Weather Alert Notification Services


Advertise Here

Observation History for Tri-Cities Airport, WA


Time Wind
(mph)
Vis
(mi)
Weather Precip (in) Temperature (F) Relative
Humidity
Wind
Chill
(F)
Heat
Index
(F)
Pressure
Air Dwpt altimeter
(in)
sea level
(mb)
Rmks
10:53 am PST N 0.0 10.00 Fair -- 43.0 35.1 74% NA NA 29.65 1004.1
9:53 am PST W 5.8 10.00 Fair -- 40.0 36.0 86% 36 NA 29.64 1003.8
8:53 am PST N 0.0 10.00 Mostly Cloudy -- 35.0 33.1 93% NA NA 29.62 1003.3
7:53 am PST N 0.0 10.00 Overcast Trace 34.0 33.1 97% NA NA 29.61 1003.0
6:53 am PST NW 6.9 10.00 Overcast -- 34.0 32.0 92% 28 NA 29.59 1002.4
5:53 am PST N 0.0 9.00 Overcast -- 34.0 32.0 92% NA NA 29.57 1001.6
4:53 am PST N 0.0 6.00 Fog/Mist -- 33.0 32.0 96% NA NA 29.56 1001.3
3:53 am PST SW 3.5 5.00 Fog/Mist 00.01 33.0 32.0 96% NA NA 29.57 1001.6
2:53 am PST SW 4.6 7.00 Light Rain Trace 33.0 30.9 92% 29 NA 29.58 1002.1
1:53 am PST N 3.5 9.00 Light Rain Trace 33.0 30.9 92% NA NA 29.59 1002.3
12:53 am PST N 0.0 10.00 Overcast Trace 34.0 30.0 85% NA NA 29.61 1003.0
11:53 pm PST NW 5.8 10.00 Overcast -- 34.0 30.0 85% 29 NA 29.63 1003.5
10:53 pm PST W 3.5 10.00 Overcast -- 34.0 28.9 82% NA NA 29.64 1003.8
9:53 pm PST NW 5.8 10.00 Overcast -- 35.0 28.0 76% 30 NA 29.65 1004.2
8:53 pm PST W 4.6 10.00 Overcast -- 34.0 28.9 82% 30 NA 29.64 1003.9
7:53 pm PST W 4.6 10.00 Overcast -- 33.0 28.9 85% 29 NA 29.64 1004.0
6:53 pm PST NW 4.6 10.00 A Few Clouds -- 32.0 28.0 85% 27 NA 29.64 1003.9
5:53 pm PST NW 5.8 10.00 Fair -- 32.0 27.0 82% 26 NA 29.65 1004.2
4:53 pm PST NE 6.9 10.00 Fair -- 39.0 28.0 65% 34 NA 29.66 1004.8
3:53 pm PST NE 9.2 10.00 Fair -- 42.0 28.9 60% 36 NA 29.69 1005.6
2:53 pm PST NE 9.2 10.00 Fair -- 43.0 28.0 56% 38 NA 29.71 1006.3
1:53 pm PST E 11.5 10.00 Fair -- 44.0 27.0 51% 38 NA 29.73 1006.8
12:53 pm PST NE 8.1 10.00 Fair -- 42.0 27.0 55% 37 NA 29.75 1007.7
11:53 am PST E 8.1 10.00 Fair -- 40.0 28.9 65% 35 NA 29.78 1008.7

Regional Weather Observation


Tri-Cities Airport, WA (KPSC)

Fair
43.0 F

Hanford, WA (KHMS)

Partly Cloudy
61.0 F

Sunnyside Municipal Airport, WA (K1S5)

Overcast
35.0 F

Walla Walla Regional Airport, WA (KALW)

A Few Clouds and Breezy
48.0 F

Range Op 13 - Yakima Training, WA (K1QW)

Light Showers Rain
NULL F

Hermiston, Hermiston Municipal Airport, OR (KHRI)

Fair
54.0 F